VALENCIA, VC current weather conditions

sailwx.info

Wind from 350 at 2 knots

Air temperature 14.0° C
Dewpoint 5.0° C

Last reported at 2015-Mar-26 19:00 UTC.
Time now 2015-Mar-26 22:34 UTC

Location: N 39°35' W 000°27'.
View on Google Maps.

See reports from other nearby stations

  
Tides and Currents Weather Stations Pressure Air Temp Water Temp Dewpoint Dewpoint Depression Visibility Wind Speed Wind Dir Waves Ship Positions
date/time (UTC)wind fromknots sea level pressurealtimeterstation pressurevisibilityair tempwater tempwave heightnotes
2015-Mar-26 21:00 260 3 16.0
2015-Mar-26 19:00 350 2 14.0
2015-Mar-26 18:00 130 1 14.0
2015-Mar-26 17:00 100 3 14.0
2015-Mar-26 15:00 110 8 15.0
2015-Mar-26 14:00 110 10 15.0
2015-Mar-26 13:00 130 7 15.0
2015-Mar-26 12:00 110 6 gusting 16 15.0
2015-Mar-26 11:00 16.0
2015-Mar-26 10:00 270 5 15.0
2015-Mar-26 09:00 350 6 13.0
2015-Mar-26 08:00 12.0
2015-Mar-26 07:00 210 2 9.0
2015-Mar-26 06:00 330 5 8.0
2015-Mar-26 04:00 290 11 8.0
2015-Mar-26 03:00 290 11 8.0
2015-Mar-26 02:00 290 10 8.0
2015-Mar-26 01:00 290 11 8.0
2015-Mar-26 00:00 310 8 gusting 18 9.0
2015-Mar-25 23:00 300 8 9.0
2015-Mar-25 22:00 320 9 gusting 20 9.0
2015-Mar-25 21:00 260 5 9.0
2015-Mar-25 20:00 320 8 10.0
2015-Mar-25 19:00 330 9 gusting 19 11.0
2015-Mar-25 18:00 330 9 gusting 19 12.0
2015-Mar-25 17:00 320 12 gusting 23 14.0
2015-Mar-25 16:00 340 12 15.0
2015-Mar-25 15:00 170 3 15.0
2015-Mar-25 14:00 340 8 gusting 18 16.0
2015-Mar-25 13:00 330 11 gusting 22 15.0
2015-Mar-25 11:00 330 13 gusting 26 14.0
2015-Mar-25 10:00 330 12 gusting 23 13.0
2015-Mar-25 09:00 290 11 12.0
2015-Mar-25 08:00 280 12 9.0
2015-Mar-25 07:00 280 8 9.0
2015-Mar-25 06:00 310 14 gusting 24 3.2 7.0
2015-Mar-25 05:00 310 13 gusting 26 10.0
2015-Mar-25 04:00 310 13 gusting 27 11.0
2015-Mar-25 03:00 270 9 10.0
2015-Mar-25 02:00 310 7 11.0
2015-Mar-25 01:00 270 5 10.0
2015-Mar-25 00:00 260 3 10.0
2015-Mar-24 23:00 280 4 9.0
2015-Mar-24 22:00 4.910.0